Location: Lecco
(45.8566°N, 9.3977°E)
Time: 13:22:06
(UTC+02:00)

Vanguard 2 Rocket - Pass Details

Date: 20 August 2020
Orbit: 554 x 3326 km, 32.9° (Epoch: 24 September)

Event Time Altitude Azimuth Distance (km) Brightness Sun altitude
Rises 17:32:48 0° 236° (SW) 2,783 10.4 28.2°
Reaches altitude 10° 17:35:19 10° 217° (SW) 2,012 9.5 27.8°
Maximum altitude 17:38:35 20° 170° (S) 1,695 8.5 27.2°
Drops below altitude 10° 17:42:48 10° 125° (SE) 2,677 9.0 26.5°
Sets 17:46:50 0° 110° (ESE) 4,093 9.8 25.8°
